CDT,Max TemperatureF,Mean TemperatureF,Min TemperatureF,Max Dew PointF,MeanDew PointF,Min DewpointF,Max Humidity, Mean Humidity, Min Humidity, Max Sea Level PressureIn, Mean Sea Level PressureIn, Min Sea Level PressureIn, Max VisibilityMiles, Mean VisibilityMiles, Min VisibilityMiles, Max Wind SpeedMPH, Mean Wind SpeedMPH, Max Gust SpeedMPH,PrecipitationIn, CloudCover, Events, WindDirDegrees
2012-10-1,80,70,60,60,56,48,90,63,35,29.79,29.73,29.70,10,9,5,20,9,24,0.01,7,Rain,331
2012-10-2,78,68,57,57,54,48,87,63,38,29.96,29.88,29.78,10,10,10,9,3,23,0.00,5,,358
2012-10-3,81,68,55,60,57,55,100,71,42,30.07,30.01,29.96,10,10,9,10,2,16,0.00,3,,154
2012-10-4,84,70,55,65,62,57,100,74,48,30.19,30.13,30.08,10,10,7,14,3,18,0.00,0,Fog,147
2012-10-5,86,75,64,67,64,62,93,71,48,30.12,30.05,29.96,10,10,9,15,6,25,0.00,1,,200
2012-10-6,70,60,49,65,50,39,90,81,71,30.21,30.11,30.02,10,10,10,20,12,29,0.00,8,,26
2012-10-7,60,54,48,47,42,40,80,66,51,30.28,30.21,30.14,10,10,10,17,9,22,0.04,7,Rain,26
2012-10-8,66,56,46,48,46,43,93,69,44,30.26,30.20,30.12,10,9,4,13,6,17,0.01,6,Rain,38
2012-10-9,77,60,43,63,53,42,100,79,57,30.13,30.05,29.93,10,10,7,12,5,18,0.00,5,,172
2012-10-10,77,71,64,66,63,60,93,79,64,30.18,30.10,30.02,10,8,4,15,7,18,0.00,6,,83
2012-10-11,85,73,60,68,63,57,90,71,51,30.20,30.15,30.11,10,10,7,14,5,18,0.00,4,,157
2012-10-12,86,76,66,66,64,62,93,71,48,30.23,30.16,30.14,10,10,9,14,5,20,0.00,3,,159
2012-10-13,85,74,63,70,67,62,100,82,63,30.14,30.06,29.92,10,7,2,25,10,61,T,6,Rain,157
2012-10-14,86,75,63,73,67,57,100,70,40,30.04,29.98,29.91,10,8,1,20,9,32,2.12,6,Rain-Thunderstorm,247
2012-10-15,81,68,55,57,53,46,93,63,32,30.09,30.03,29.97,10,10,10,9,1,79,0.00,3,,345
2012-10-16,72,63,54,59,56,53,100,77,53,29.99,29.89,29.79,10,10,9,9,4,12,0.00,6,,167
2012-10-17,83,71,58,70,64,57,97,81,65,29.77,29.68,29.57,10,10,8,22,10,32,T,4,Rain-Thunderstorm,201
2012-10-18,77,64,50,58,44,31,86,52,18,29.95,29.89,29.71,10,10,10,15,6,17,0.00,0,,316
2012-10-19,76,62,48,45,38,32,77,49,21,29.96,29.92,29.87,10,10,7,22,9,28,0.00,1,,268
2012-10-20,83,65,46,55,47,42,93,61,28,29.96,29.90,29.84,10,10,10,16,5,20,0.00,0,,179
2012-10-21,86,75,64,68,63,57,84,70,55,30.01,29.95,29.88,10,10,10,18,10,28,0.00,5,,158
2012-10-22,86,74,62,68,63,58,100,70,40,30.08,30.02,29.97,10,9,2,17,8,23,0.00,4,Fog,164
2012-10-23,82,72,62,66,64,62,100,77,54,30.06,30.01,29.95,10,7,0,13,5,16,0.00,4,Fog,177
2012-10-24,83,72,60,68,65,61,100,78,55,30.07,29.99,29.92,10,7,0,14,6,17,0.00,3,Fog,165
2012-10-25,84,73,61,70,67,63,100,82,63,29.95,29.91,29.86,10,8,3,20,7,24,0.14,6,Rain-Thunderstorm,170
2012-10-26,61,54,47,63,51,44,100,90,80,30.24,30.10,29.96,10,7,2,22,11,26,1.80,8,Rain-Thunderstorm,1
2012-10-27,59,51,42,44,37,33,93,65,37,30.27,30.19,30.11,10,10,10,17,9,23,0.00,0,,359
2012-10-28,63,52,40,39,35,30,89,61,32,30.26,30.20,30.17,10,10,10,15,6,23,0.00,1,,359
2012-10-29,64,51,37,40,35,31,92,61,30,30.32,30.23,30.15,10,10,10,9,4,,0.00,1,,360
2012-10-30,71,55,39,48,40,36,93,61,29,30.14,30.06,29.97,10,10,7,12,3,17,0.00,1,,240
2012-10-31,79,63,47,58,51,44,93,67,40,30.00,29.97,29.94,10,10,7,15,5,18,0.00,0,,274